Regional Weather Roundup
Issued by NWS

Home | Current Version | Previous Version | Text Only | Print | Product List | Glossary On
Versions: 1 2 3 4 5 6 7 8 9 10 11 12 13 14 15 16 17 18 19 20 21 22 23 24 25 26 27 28 29 30 31 32 33 34 35 36 37 38 39 40 41 42 43 44 45 46 47 48 49 50
000
ASUS42 KFFC 051910
RWRGA
WEATHER ROUNDUP FOR GEORGIA
NATIONAL WEATHER SERVICE PEACHTREE CITY GA
200 PM EST MON DEC 05 2016

NOTE: "FAIR" INDICATES FEW OR NO CLOUDS BELOW 12,000 FEET WITH NO
SIGNIFICANT WEATHER AND/OR OBSTRUCTIONS TO VISIBILITY.

* = USE WITH CAUTION. THE STATIONS MARKED WITH AN ASTERISK MAY NOT
REPORT WEATHER SUCH AS PRECIPITATION, FOG, OR THUNDER AND ARE NOT
QUALITY CONTROLLED BY NWS.

THE REMARK "TC" DENOTES TEMPERATURE READING IN DEGREES CELSIUS.

GAZ001>058-052000-
NORTH GEORGIA

CITY           SKY/WX    TMP DP  RH WIND       PRES   REMARKS
ATLANTA        RAIN      50  49  96 N8        29.94R FOG
ATHENS         LGT RAIN  51  50  96 E3        29.95F
CHAMBLEE       LGT RAIN  52  49  89 N7        29.95R FOG
PEACHTREE CITY CLOUDY    50  48  93 N3        29.93S
ROME           RAIN      51  49  92 NE5       29.95F FOG
WEST ATLANTA   HVY RAIN  60  48  64 NW5       29.96R
GAINESVILLE    RAIN      50  49  96 CALM      29.96F FOG
CARTERSVILLE   RAIN      50  49  96 CALM      29.99R FOG


CITY           SKY/WX    TMP DP  RH WIND       PRES   REMARKS
DALTON*        LGT RAIN  50  50 100 N3        29.97F
LAWRENCEVILLE* LGT RAIN  52  48  87 CALM      29.93F FOG
MARIETTA       RAIN      50  48  93 NW10      29.97R FOG
KENNESAW*      CLOUDY    48  46  93 N5        30.00R FOG
CANTON*        DRIZZLE   52  48  87 CALM      29.97S
$$

GAZ059>098-102>109-052000-
CENTRAL GEORGIA

CITY           SKY/WX    TMP DP  RH WIND       PRES   REMARKS
AUGUSTA-BUSH   PTSUNNY   57  49  74 CALM      29.94F
AUGUSTA-DANIEL PTSUNNY   56  48  74 N6        29.95F
COLUMBUS       CLOUDY    56  51  84 E8        29.90F
MACON          CLOUDY    55  50  83 CALM      29.92F
ROBINS AFB     CLOUDY    55  51  86 CALM      29.91F


CITY           SKY/WX    TMP DP  RH WIND       PRES   REMARKS
LAGRANGE*      CLOUDY    53  53 100 NW7       29.94R
SYLVANIA*      CLOUDY   N/A N/A N/A E3        29.94F
MILLEDGEVILLE* CLOUDY    54  54 100 CALM      29.94F
$$

GAZ099>101-110>166-052000-
SOUTH GEORGIA

CITY           SKY/WX    TMP DP  RH WIND       PRES   REMARKS
SAVANNAH       CLOUDY    61  56  83 CALM      29.94F
VALDOSTA       LGT RAIN  74  73  97 S7        29.89F FOG
ALMA           CLOUDY    60  60 100 E5        29.90F FOG
ST SIMONS      CLOUDY    75  67  76 SE6       29.91F
FT STEWART     CLOUDY    60  58  90 CALM      29.91F
ALBANY         CLOUDY    57  57 100 NE7       29.91F
HUNTER AFB     CLOUDY    61  61 100 CALM      29.91F
MOODY AFB      LGT RAIN  73  71  95 S8        29.88F
BRUNSWICK      PTSUNNY   77  72  83 W5        29.92F


CITY           SKY/WX    TMP DP  RH WIND       PRES   REMARKS
BAINBRIDGE*    FOG       61  61 100 E7        29.87F VSB 3/4
MOULTRIE*      FOG       63  61  94 NE3       29.89F VSB 1/2
VIDALIA*       HVY RAIN  59  59 100 NE5       29.92F
WAYCROSS*      CLOUDY    67  67 100 N5        29.91F FOG
DOUGLAS*         N/A     61  59  94 E3        29.92F FOG
$$




USA.gov is the U.S. government's official web portal to all federal, state and local government web resources and services.